TimeCST,TemperatureF,Dew PointF,Humidity,Sea Level PressureIn,VisibilityMPH,Wind Direction,Wind SpeedMPH,Gust SpeedMPH,PrecipitationIn,Events,Conditions,WindDirDegrees,DateUTC
12:53 AM,10.9,7.0,84,30.12,10.0,SSW,4.6,-,N/A,,Clear,210,2013-01-04 06:53:00
1:53 AM,7.0,3.0,84,30.11,10.0,South,9.2,-,N/A,,Clear,170,2013-01-04 07:53:00
2:53 AM,5.0,1.0,84,30.14,10.0,South,5.8,-,N/A,,Clear,170,2013-01-04 08:53:00
3:53 AM,6.1,1.0,80,30.12,10.0,SSW,6.9,-,N/A,,Clear,200,2013-01-04 09:53:00
4:53 AM,6.1,1.0,80,30.12,10.0,SSW,5.8,-,N/A,,Clear,200,2013-01-04 10:53:00
5:53 AM,5.0,-0.0,80,30.14,10.0,SW,5.8,-,N/A,,Clear,220,2013-01-04 11:53:00
6:53 AM,5.0,-0.0,80,30.14,10.0,SSW,6.9,-,N/A,,Clear,200,2013-01-04 12:53:00
7:53 AM,3.9,-0.9,80,30.15,10.0,Calm,Calm,-,N/A,,Clear,0,2013-01-04 13:53:00
8:53 AM,3.9,-2.0,76,30.17,10.0,Calm,Calm,-,N/A,,Clear,0,2013-01-04 14:53:00
9:53 AM,7.0,1.0,77,30.20,10.0,Calm,Calm,-,N/A,,Clear,0,2013-01-04 15:53:00
10:53 AM,10.9,5.0,77,30.20,10.0,South,3.5,-,N/A,,Clear,170,2013-01-04 16:53:00
11:53 AM,16.0,7.0,68,30.18,10.0,SSW,3.5,-,N/A,,Clear,200,2013-01-04 17:53:00
12:53 PM,19.0,10.0,68,30.16,10.0,South,5.8,-,N/A,,Clear,190,2013-01-04 18:53:00
1:53 PM,21.9,12.9,68,30.15,10.0,South,4.6,-,N/A,,Clear,180,2013-01-04 19:53:00
2:53 PM,23.0,14.0,68,30.14,10.0,South,5.8,-,N/A,,Clear,180,2013-01-04 20:53:00
3:53 PM,19.0,12.9,77,30.15,10.0,SE,5.8,-,N/A,,Clear,140,2013-01-04 21:53:00
4:53 PM,14.0,8.1,77,30.16,10.0,SE,5.8,-,N/A,,Clear,130,2013-01-04 22:53:00
5:53 PM,12.0,7.0,80,30.15,10.0,South,8.1,-,N/A,,Clear,180,2013-01-04 23:53:00
6:53 PM,12.0,7.0,80,30.14,10.0,South,6.9,-,N/A,,Clear,180,2013-01-05 00:53:00
7:53 PM,8.6,3.2,79,30.07,10.0,Calm,Calm,-,N/A,,Clear,0,2013-01-05 01:53:00
8:53 PM,3.9,1.0,88,30.13,10.0,South,5.8,-,N/A,,Clear,180,2013-01-05 02:53:00
9:53 PM,3.0,-0.9,84,30.11,10.0,South,5.8,-,N/A,,Clear,180,2013-01-05 03:53:00
10:53 PM,3.0,-0.9,84,30.10,10.0,SSW,3.5,-,N/A,,Clear,200,2013-01-05 04:53:00
11:53 PM,1.0,-2.9,83,30.08,10.0,SSW,6.9,-,N/A,,Clear,200,2013-01-05 05:53:00